• în România
  • Lista ţărilor
  • Pe 7 zile
  • Temperatura apei
  • Hartă satelitară
  • Meteo pe hartă
  • Widget-uri
  • user-avatar
    Intrare

    Meteo pe oră la Elbasan

    Astăzi, 26 Septembrie, Marţi

    Timp Temperatura Precipitaţii Vânt Presiune Umiditate
    00:00 +15°C° 0,1 mm 2 m/s 736 mmHg 82%
    01:00 +15°C° 0 mm 2 m/s 736 mmHg 82%
    02:00 +15°C° 0 mm 2 m/s 736 mmHg 82%
    03:00 +15°C° 0 mm 2 m/s 736 mmHg 82%
    04:00 +14°C° 0 mm 2 m/s 735 mmHg 82%
    05:00 +15°C° 0 mm 2 m/s 736 mmHg 79%
    06:00 +16°C° 0 mm 2 m/s 736 mmHg 76%
    07:00 +17°C° 0 mm 2 m/s 736 mmHg 73%
    08:00 +20°C° 0 mm 1 m/s 736 mmHg 65%
    09:00 +22°C° 0 mm 1 m/s 736 mmHg 57%
    10:00 +24°C° 0 mm 1 m/s 736 mmHg 49%
    11:00 +24°C° 0,2 mm 1 m/s 736 mmHg 48%
    12:00 +25°C° 0,2 mm 2 m/s 736 mmHg 47%
    13:00 +25°C° 0,2 mm 2 m/s 736 mmHg 46%
    14:00 +24°C° 0,2 mm 2 m/s 736 mmHg 49%
    15:00 +24°C° 0,2 mm 3 m/s 736 mmHg 52%
    16:00 +22°C° 0,2 mm 3 m/s 736 mmHg 55%
    17:00 +20°C° 0,1 mm 2 m/s 736 mmHg 63%
    18:00 +19°C° 0,1 mm 2 m/s 737 mmHg 70%
    19:00 +18°C° 0,1 mm 1 m/s 737 mmHg 77%
    20:00 +18°C° 0 mm 1 m/s 737 mmHg 79%
    21:00 +16°C° 0 mm 1 m/s 737 mmHg 80%
    22:00 +16°C° 0 mm 1 m/s 737 mmHg 82%
    23:00 +16°C° 0 mm 1 m/s 737 mmHg 82%

    Mâine, 27 Septembrie, Miercuri

    Timp Temperatura Precipitaţii Vânt Presiune Umiditate
    00:00 +15°C° 0 mm 1 m/s 737 mmHg 82%
    01:00 +15°C° 0 mm 1 m/s 737 mmHg 82%
    02:00 +15°C° 0 mm 1 m/s 737 mmHg 82%
    03:00 +15°C° 0 mm 1 m/s 737 mmHg 82%
    04:00 +14°C° 0 mm 1 m/s 737 mmHg 82%
    05:00 +15°C° 0 mm 1 m/s 738 mmHg 79%
    06:00 +16°C° 0 mm 1 m/s 738 mmHg 76%
    07:00 +18°C° 0 mm 1 m/s 738 mmHg 73%
    08:00 +20°C° 0 mm 1 m/s 738 mmHg 66%
    09:00 +22°C° 0 mm 1 m/s 739 mmHg 58%
    10:00 +24°C° 0 mm 1 m/s 739 mmHg 51%
    11:00 +24°C° 0,1 mm 1 m/s 739 mmHg 50%
    12:00 +25°C° 0,1 mm 2 m/s 739 mmHg 48%
    13:00 +25°C° 0,1 mm 2 m/s 738 mmHg 46%
    14:00 +25°C° 0,2 mm 2 m/s 738 mmHg 50%
    15:00 +24°C° 0,2 mm 2 m/s 738 mmHg 53%
    16:00 +23°C° 0,2 mm 2 m/s 738 mmHg 56%
    17:00 +21°C° 0,1 mm 2 m/s 739 mmHg 63%
    18:00 +20°C° 0,1 mm 1 m/s 739 mmHg 69%
    19:00 +19°C° 0,1 mm 1 m/s 739 mmHg 76%
    20:00 +18°C° 0,1 mm 1 m/s 739 mmHg 77%
    21:00 +18°C° 0,1 mm 1 m/s 739 mmHg 78%
    22:00 +18°C° 0,1 mm 1 m/s 740 mmHg 78%
    23:00 +18°C° 0,1 mm 1 m/s 740 mmHg 79%

    Poimâine, 28 Septembrie, Joi

    Timp Temperatura Precipitaţii Vânt Presiune Umiditate
    00:00 +18°C° 0,1 mm 1 m/s 740 mmHg 80%
    01:00 +16°C° 0,1 mm 1 m/s 739 mmHg 81%
    02:00 +16°C° 0,1 mm 2 m/s 739 mmHg 82%
    03:00 +16°C° 0,1 mm 2 m/s 739 mmHg 82%
    04:00 +16°C° 0,1 mm 2 m/s 739 mmHg 83%
    05:00 +17°C° 0 mm 2 m/s 739 mmHg 81%
    06:00 +17°C° 0 mm 2 m/s 739 mmHg 79%
    07:00 +18°C° 0 mm 2 m/s 739 mmHg 77%
    08:00 +19°C° 0 mm 2 m/s 740 mmHg 70%
    09:00 +21°C° 0 mm 2 m/s 740 mmHg 63%
    10:00 +23°C° 0 mm 1 m/s 740 mmHg 56%
    11:00 +24°C° 0,3 mm 2 m/s 740 mmHg 54%
    12:00 +24°C° 0,3 mm 2 m/s 740 mmHg 52%
    13:00 +25°C° 0,3 mm 2 m/s 739 mmHg 51%
    14:00 +24°C° 0,7 mm 2 m/s 739 mmHg 54%
    15:00 +24°C° 0,7 mm 2 m/s 739 mmHg 58%
    16:00 +22°C° 0,7 mm 3 m/s 739 mmHg 61%
    17:00 +21°C° 0,5 mm 2 m/s 739 mmHg 66%
    18:00 +19°C° 0,5 mm 2 m/s 739 mmHg 71%
    19:00 +18°C° 0,5 mm 2 m/s 739 mmHg 76%
    20:00 +18°C° 0,2 mm 2 m/s 739 mmHg 78%
    21:00 +17°C° 0,2 mm 2 m/s 740 mmHg 79%
    22:00 +17°C° 0,2 mm 2 m/s 740 mmHg 81%
    23:00 +16°C° 0 mm 2 m/s 739 mmHg 81%

    29 Septembrie, Vineri

    Timp Temperatura Precipitaţii Vânt Presiune Umiditate
    00:00 +16°C° 0 mm 2 m/s 739 mmHg 82%
    01:00 +16°C° 0 mm 2 m/s 739 mmHg 83%
    02:00 +15°C° 0 mm 2 m/s 739 mmHg 84%
    03:00 +15°C° 0 mm 2 m/s 739 mmHg 84%
    04:00 +15°C° 0 mm 2 m/s 738 mmHg 85%
    05:00 +15°C° 0 mm 2 m/s 738 mmHg 82%
    06:00 +16°C° 0 mm 2 m/s 739 mmHg 80%
    07:00 +17°C° 0 mm 2 m/s 739 mmHg 78%
    08:00 +18°C° 0 mm 2 m/s 739 mmHg 70%
    09:00 +20°C° 0 mm 2 m/s 739 mmHg 63%
    10:00 +21°C° 0 mm 2 m/s 739 mmHg 55%
    11:00 +23°C° 0,2 mm 2 m/s 739 mmHg 54%
    12:00 +23°C° 0,2 mm 2 m/s 738 mmHg 54%
    13:00 +23°C° 0,2 mm 2 m/s 738 mmHg 53%
    14:00 +21°C° 0,3 mm 2 m/s 738 mmHg 56%
    15:00 +21°C° 0,3 mm 2 m/s 738 mmHg 59%
    16:00 +20°C° 0,3 mm 2 m/s 737 mmHg 62%
    17:00 +19°C° 0,2 mm 2 m/s 738 mmHg 66%
    18:00 +18°C° 0,2 mm 2 m/s 738 mmHg 69%
    19:00 +17°C° 0,2 mm 2 m/s 738 mmHg 73%
    20:00 +17°C° 0 mm 2 m/s 738 mmHg 74%
    21:00 +16°C° 0 mm 2 m/s 738 mmHg 76%
    22:00 +15°C° 0 mm 2 m/s 738 mmHg 77%
    23:00 +15°C° 0 mm 2 m/s 738 mmHg 78%

    30 Septembrie, Sâmbătă

    Timp Temperatura Precipitaţii Vânt Presiune Umiditate
    00:00 +15°C° 0 mm 2 m/s 738 mmHg 78%
    01:00 +15°C° 0 mm 2 m/s 738 mmHg 79%
    02:00 +14°C° 0 mm 2 m/s 738 mmHg 79%
    03:00 +14°C° 0 mm 2 m/s 738 mmHg 79%
    04:00 +14°C° 0 mm 2 m/s 738 mmHg 80%
    05:00 +14°C° 0 mm 2 m/s 738 mmHg 77%
    06:00 +15°C° 0 mm 2 m/s 738 mmHg 75%
    07:00 +15°C° 0 mm 2 m/s 738 mmHg 72%
    08:00 +17°C° 0 mm 2 m/s 738 mmHg 65%
    09:00 +19°C° 0 mm 2 m/s 737 mmHg 58%
    10:00 +20°C° 0 mm 2 m/s 737 mmHg 51%
    11:00 +21°C° 0 mm 2 m/s 737 mmHg 50%
    12:00 +21°C° 0 mm 2 m/s 737 mmHg 48%
    13:00 +23°C° 0 mm 2 m/s 736 mmHg 47%
    14:00 +21°C° 0 mm 2 m/s 736 mmHg 49%
    15:00 +21°C° 0 mm 2 m/s 736 mmHg 52%
    16:00 +20°C° 0 mm 2 m/s 736 mmHg 54%
    17:00 +19°C° 0 mm 2 m/s 736 mmHg 57%
    18:00 +19°C° 0 mm 1 m/s 737 mmHg 60%
    19:00 +18°C° 0 mm 1 m/s 737 mmHg 62%
    20:00 +18°C° 0 mm 1 m/s 737 mmHg 64%
    21:00 +16°C° 0 mm 1 m/s 737 mmHg 66%
    22:00 +15°C° 0 mm 1 m/s 737 mmHg 68%
    23:00 +15°C° 0 mm 1 m/s 737 mmHg 69%

    1 Octombrie, Duminică

    Timp Temperatura Precipitaţii Vânt Presiune Umiditate
    00:00 +15°C° 0 mm 1 m/s 737 mmHg 70%
    01:00 +14°C° 0 mm 1 m/s 737 mmHg 70%
    02:00 +14°C° 0 mm 1 m/s 737 mmHg 71%
    03:00 +14°C° 0 mm 2 m/s 737 mmHg 71%
    04:00 +14°C° 0 mm 2 m/s 737 mmHg 71%
    05:00 +14°C° 0 mm 2 m/s 737 mmHg 69%
    06:00 +15°C° 0 mm 2 m/s 737 mmHg 68%
    07:00 +15°C° 0 mm 2 m/s 737 mmHg 66%
    08:00 +18°C° 0 mm 1 m/s 737 mmHg 60%
    09:00 +20°C° 0 mm 1 m/s 737 mmHg 54%
    10:00 +22°C° 0 mm 1 m/s 737 mmHg 48%
    11:00 +22°C° 0,1 mm 1 m/s 737 mmHg 48%
    12:00 +22°C° 0,1 mm 1 m/s 737 mmHg 47%
    13:00 +23°C° 0,1 mm 2 m/s 737 mmHg 47%
    14:00 +21°C° 0,1 mm 2 m/s 737 mmHg 49%
    15:00 +21°C° 0,1 mm 2 m/s 737 mmHg 51%
    16:00 +20°C° 0,1 mm 2 m/s 737 mmHg 53%
    17:00 +19°C° 0,1 mm 2 m/s 737 mmHg 59%
    18:00 +18°C° 0,1 mm 1 m/s 737 mmHg 65%
    19:00 +16°C° 0,1 mm 1 m/s 737 mmHg 72%
    20:00 +16°C° 0 mm 1 m/s 738 mmHg 72%
    21:00 +15°C° 0 mm 1 m/s 738 mmHg 73%
    22:00 +15°C° 0 mm 1 m/s 738 mmHg 73%
    23:00 +15°C° 0 mm 1 m/s 738 mmHg 73%
    Arată mai mult